| time (UTC) | temp C | wind direction | speed KPH | gust KPH | rain 1hr cm | rain 24hr cm | rain mn cm | humidity % | barometer mb |
| 20260505041704 | 12 | 159 | 0.0 | 0.0 | 0.03 | 0.03 | 0.03 | 91 | 1014.6 |
| 20260505041204 | 12 | 159 | 0.0 | 0.0 | 0.03 | 0.03 | 0.03 | 91 | 1014.6 |
| 20260505040704 | 12 | 159 | 3.2 | 1.6 | 0.03 | 0.03 | 0.03 | 91 | 1014.7 |
| 20260505040204 | 12 | 356 | 3.2 | 0.0 | 0.03 | 0.03 | 0.03 | 91 | 1014.8 |
| 20260505035204 | 12 | 194 | 3.2 | 9.7 | 0.00 | 0.00 | 0.00 | 91 | 1014.8 |
| 20260505034704 | 12 | 194 | 4.8 | 11.3 | 0.00 | 0.00 | 0.00 | 91 | 1014.8 |
| 20260505034204 | 12 | 189 | 4.8 | 8.0 | 0.00 | 0.00 | 0.00 | 91 | 1014.8 |
| 20260505033704 | 12 | 177 | 0.0 | 12.9 | 0.00 | 0.00 | 0.00 | 90 | 1014.8 |
| 20260505033204 | 12 | 194 | 0.0 | 9.7 | 0.00 | 0.00 | 0.00 | 90 | 1014.8 |
| 20260505032704 | 12 | 285 | 3.2 | 3.2 | 0.00 | 0.00 | 0.00 | 90 | 1014.8 |
| 20260505032205 | 12 | 241 | 3.2 | 4.8 | 0.00 | 0.00 | 0.00 | 90 | 1014.9 |
| 20260505031704 | 12 | 129 | 4.8 | 4.8 | 0.00 | 0.00 | 0.00 | 89 | 1014.9 |
| 20260505030704 | 12 | 163 | 4.8 | 9.7 | 0.00 | 0.00 | 0.00 | 89 | 1014.9 |
| 20260505030204 | 12 | 194 | 4.8 | 11.3 | 0.00 | 0.00 | 0.00 | 88 | 1014.9 |
| 20260505025704 | 12 | 201 | 1.6 | 11.3 | 0.00 | 0.00 | 0.00 | 88 | 1014.9 |
| 20260505024705 | 12 | 296 | 6.4 | 3.2 | 0.00 | 0.00 | 0.00 | 87 | 1014.9 |
| 20260505024204 | 12 | 171 | 8.0 | 8.0 | 0.00 | 0.00 | 0.00 | 86 | 1014.9 |
| 20260505023705 | 13 | 197 | 3.2 | 11.3 | 0.00 | 0.00 | 0.00 | 86 | 1014.9 |
| 20260505023204 | 13 | 164 | 3.2 | 12.9 | 0.00 | 0.00 | 0.00 | 84 | 1014.9 |
| 20260505022704 | 13 | 196 | 0.0 | 12.9 | 0.00 | 0.00 | 0.00 | 83 | 1014.9 |
| 20260505022204 | 13 | 193 | 0.0 | 8.0 | 0.00 | 0.00 | 0.00 | 82 | 1014.9 |
| 20260505021704 | 13 | 212 | 0.0 | 1.6 | 0.00 | 0.00 | 0.00 | 82 | 1014.9 |
| 20260505021204 | 13 | 212 | 0.0 | 3.2 | 0.00 | 0.00 | 0.00 | 81 | 1014.9 |
| 20260505020704 | 13 | 321 | 0.0 | 1.6 | 0.00 | 0.00 | 0.00 | 81 | 1014.9 |
| 20260505020204 | 13 | 324 | 0.0 | 0.0 | 0.00 | 0.00 | 0.00 | 81 | 1014.8 |
| 20260505015704 | 13 | 324 | 0.0 | 0.0 | 0.00 | 0.00 | 0.00 | 80 | 1014.8 |
| 20260505015204 | 13 | 322 | 0.0 | 1.6 | 0.00 | 0.00 | 0.00 | 80 | 1014.9 |
| 20260505014705 | 13 | 325 | 0.0 | 3.2 | 0.00 | 0.00 | 0.00 | 80 | 1014.9 |
| 20260505014204 | 13 | 306 | 0.0 | 3.2 | 0.00 | 0.00 | 0.00 | 80 | 1014.9 |
| 20260505013205 | 13 | 317 | 0.0 | 3.2 | 0.00 | 0.00 | 0.00 | 81 | 1014.9 |
| 20260505012704 | 13 | 336 | 3.2 | 0.0 | 0.00 | 0.00 | 0.00 | 82 | 1014.9 |
| 20260505012204 | 13 | 329 | 3.2 | 3.2 | 0.00 | 0.00 | 0.00 | 82 | 1015.1 |
| 20260505011704 | 13 | 11 | 1.6 | 9.7 | 0.00 | 0.00 | 0.00 | 82 | 1015.2 |
| 20260505011204 | 13 | 343 | 1.6 | 9.7 | 0.00 | 0.00 | 0.00 | 83 | 1015.2 |
| 20260505010705 | 13 | 321 | 6.4 | 3.2 | 0.00 | 0.00 | 0.00 | 83 | 1015.3 |
| 20260505005704 | 13 | 322 | 0.0 | 12.9 | 0.00 | 0.00 | 0.00 | 84 | 1015.4 |
| 20260505005204 | 13 | 318 | 0.0 | 12.9 | 0.00 | 0.00 | 0.00 | 84 | 1015.6 |
| 20260505004704 | 13 | 304 | 0.0 | 3.2 | 0.00 | 0.00 | 0.00 | 84 | 1015.8 |
| 20260505004204 | 13 | 282 | 0.0 | 3.2 | 0.00 | 0.00 | 0.00 | 83 | 1015.8 |
| 20260505003704 | 13 | 314 | 0.0 | 1.6 | 0.00 | 0.00 | 0.00 | 83 | 1016.1 |
| 20260505003204 | 13 | 310 | 0.0 | 1.6 | 0.00 | 0.00 | 0.00 | 82 | 1016.3 |
| 20260505001704 | 13 | 339 | 0.0 | 1.6 | 0.00 | 0.00 | 0.00 | 79 | 1016.6 |
| 20260505001204 | 13 | 137 | 0.0 | 3.2 | 0.00 | 0.00 | 0.00 | 78 | 1016.6 |
| 20260505000205 | 13 | 347 | 0.0 | 3.2 | 0.00 | 0.00 | 0.00 | 75 | 1016.8 |
| 20260504235206 | 13 | 309 | 0.0 | 0.0 | 0.00 | 0.00 | 0.00 | 74 | 1016.8 |
| 20260504234704 | 14 | 310 | 0.0 | 0.0 | 0.00 | 0.00 | 0.00 | 74 | 1016.8 |
| 20260504234204 | 14 | 311 | 0.0 | 3.2 | 0.00 | 0.00 | 0.00 | 72 | 1016.8 |
| 20260504233204 | 14 | 310 | 0.0 | 0.0 | 0.00 | 0.00 | 0.00 | 73 | 1016.8 |
| 20260504232704 | 14 | 310 | 0.0 | 0.0 | 0.00 | 0.00 | 0.00 | 73 | 1016.8 |
| 20260504232204 | 14 | 309 | 0.0 | 1.6 | 0.00 | 0.00 | 0.00 | 72 | 1017.0 |
| 20260504231704 | 14 | 325 | 0.0 | 3.2 | 0.00 | 0.00 | 0.00 | 72 | 1017.2 |
| 20260504230704 | 14 | 346 | 0.0 | 3.2 | 0.00 | 0.00 | 0.00 | 73 | 1017.3 |
| 20260504230204 | 14 | 293 | 0.0 | 0.0 | 0.00 | 0.00 | 0.00 | 74 | 1017.4 |
| 20260504225204 | 14 | 293 | 0.0 | 0.0 | 0.00 | 0.00 | 0.00 | 74 | 1017.4 |
| 20260504224704 | 14 | 293 | 0.0 | 0.0 | 0.00 | 0.00 | 0.00 | 74 | 1017.3 |
| 20260504224204 | 14 | 293 | 0.0 | 0.0 | 0.00 | 0.00 | 0.00 | 73 | 1017.3 |
| 20260504222704 | 14 | 292 | 0.0 | 0.0 | 0.00 | 0.00 | 0.00 | 72 | 1017.4 |
| 20260504222204 | 14 | 291 | 0.0 | 0.0 | 0.00 | 0.00 | 0.00 | 72 | 1017.5 |
| 20260504221705 | 14 | 290 | 0.0 | 1.6 | 0.00 | 0.00 | 0.00 | 72 | 1017.6 |
| 20260504221205 | 14 | 324 | 0.0 | 0.0 | 0.00 | 0.00 | 0.00 | 72 | 1017.6 |
| 20260504220704 | 14 | 324 | 0.0 | 0.0 | 0.00 | 0.00 | 0.00 | 73 | 1017.7 |
| 20260504215704 | 14 | 324 | 0.0 | 0.0 | 0.00 | 0.00 | 0.00 | 73 | 1017.9 |
| 20260504215204 | 15 | 324 | 0.0 | 0.0 | 0.00 | 0.00 | 0.00 | 73 | 1017.9 |
| 20260504214205 | 15 | 324 | 0.0 | 0.0 | 0.00 | 0.00 | 0.00 | 73 | 1017.9 |
| 20260504213704 | 15 | 321 | 0.0 | 0.0 | 0.00 | 0.00 | 0.00 | 73 | 1018.0 |
| 20260504213204 | 15 | 317 | 0.0 | 0.0 | 0.00 | 0.00 | 0.00 | 72 | 1018.0 |
| 20260504212704 | 15 | 319 | 0.0 | 0.0 | 0.00 | 0.00 | 0.00 | 72 | 1018.0 |
| 20260504211704 | 15 | 313 | 3.2 | 3.2 | 0.00 | 0.00 | 0.00 | 71 | 1018.1 |
| 20260504211204 | 15 | 333 | 3.2 | 3.2 | 0.00 | 0.00 | 0.00 | 71 | 1018.1 |
| 20260504210703 | 15 | 323 | 4.8 | 3.2 | 0.00 | 0.00 | 0.00 | 71 | 1018.1 |
| 20260504210203 | 15 | 313 | 4.8 | 12.9 | 0.00 | 0.00 | 0.00 | 71 | 1018.1 |
| 20260504204703 | 15 | 324 | 0.0 | 3.2 | 0.00 | 0.00 | 0.00 | 70 | 1018.1 |
| 20260504204203 | 15 | 320 | 0.0 | 3.2 | 0.00 | 0.00 | 0.00 | 70 | 1018.1 |
| 20260504203704 | 15 | 348 | 0.0 | 3.2 | 0.00 | 0.00 | 0.00 | 70 | 1018.2 |
| 20260504202202 | 15 | 329 | 0.0 | 3.2 | 0.00 | 0.00 | 0.00 | 71 | 1018.3 |
| 20260504201703 | 15 | 319 | 0.0 | 3.2 | 0.00 | 0.00 | 0.00 | 70 | 1018.3 |
| 20260504201203 | 14 | 313 | 0.0 | 3.2 | 0.00 | 0.00 | 0.00 | 71 | 1018.3 |
| 20260504200704 | 14 | 322 | 0.0 | 3.2 | 0.00 | 0.00 | 0.00 | 71 | 1018.2 |
| 20260504200203 | 14 | 318 | 0.0 | 3.2 | 0.00 | 0.00 | 0.00 | 71 | 1018.2 |
| 20260504195703 | 14 | 325 | 0.0 | 0.0 | 0.00 | 0.00 | 0.00 | 72 | 1018.2 |
| 20260504195203 | 14 | 322 | 0.0 | 3.2 | 0.00 | 0.00 | 0.00 | 72 | 1018.2 |
| 20260504194203 | 14 | 320 | 0.0 | 3.2 | 0.00 | 0.00 | 0.00 | 73 | 1018.2 |
| 20260504193703 | 14 | 321 | 0.0 | 3.2 | 0.00 | 0.00 | 0.00 | 73 | 1018.1 |
| 20260504193205 | 14 | 322 | 0.0 | 3.2 | 0.00 | 0.00 | 0.00 | 73 | 1018.0 |
| 20260504192704 | 14 | 324 | 0.0 | 3.2 | 0.00 | 0.00 | 0.00 | 74 | 1018.0 |
| 20260504191703 | 14 | 356 | 0.0 | 3.2 | 0.00 | 0.00 | 0.00 | 74 | 1018.0 |
| 20260504191203 | 14 | 324 | 0.0 | 3.2 | 0.00 | 0.00 | 0.00 | 74 | 1018.0 |
| 20260504190703 | 14 | 320 | 1.6 | 3.2 | 0.00 | 0.00 | 0.00 | 74 | 1017.9 |
| 20260504190203 | 14 | 320 | 1.6 | 3.2 | 0.00 | 0.00 | 0.00 | 74 | 1017.9 |
| 20260504185703 | 14 | 303 | 8.0 | 3.2 | 0.00 | 0.00 | 0.00 | 74 | 1017.9 |
| 20260504184704 | 14 | 313 | 4.8 | 14.5 | 0.00 | 0.00 | 0.00 | 73 | 1017.8 |
| 20260504184203 | 14 | 320 | 3.2 | 12.9 | 0.00 | 0.00 | 0.00 | 73 | 1017.8 |
| 20260504183703 | 14 | 316 | 3.2 | 12.9 | 0.00 | 0.00 | 0.00 | 75 | 1017.9 |
| 20260504183204 | 14 | 313 | 3.2 | 14.5 | 0.00 | 0.00 | 0.00 | 75 | 1017.9 |
| 20260504182703 | 15 | 344 | 3.2 | 8.0 | 0.00 | 0.00 | 0.00 | 77 | 1017.9 |
| 20260504182203 | 15 | 234 | 3.2 | 9.7 | 0.00 | 0.00 | 0.00 | 78 | 1018.0 |
| 20260504181703 | 15 | 312 | 0.0 | 19.3 | 0.00 | 0.00 | 0.00 | 79 | 1018.0 |
| 20260504181203 | 15 | 318 | 0.0 | 3.2 | 0.00 | 0.00 | 0.00 | 79 | 1018.0 |
| 20260504180203 | 15 | 252 | 3.2 | 4.8 | 0.00 | 0.00 | 0.00 | 78 | 1018.1 |
| 20260504175203 | 15 | 219 | 3.2 | 11.3 | 0.00 | 0.00 | 0.00 | 77 | 1017.9 |
| 20260504174703 | 15 | 320 | 3.2 | 9.7 | 0.00 | 0.00 | 0.00 | 76 | 1017.8 |
| 20260504174204 | 15 | 279 | 3.2 | 11.3 | 0.00 | 0.00 | 0.00 | 74 | 1017.8 |
| 20260504173703 | 16 | 337 | 4.8 | 11.3 | 0.00 | 0.00 | 0.00 | 73 | 1017.7 |
| 20260504173204 | 16 | 305 | 4.8 | 11.3 | 0.00 | 0.00 | 0.00 | 70 | 1017.6 |
| 20260504171703 | 17 | 308 | 0.0 | 20.9 | 0.00 | 0.00 | 0.00 | 57 | 1017.5 |
| 20260504171203 | 18 | 336 | 0.0 | 8.0 | 0.00 | 0.00 | 0.00 | 56 | 1017.5 |
| 20260504170703 | 18 | 348 | 0.0 | 11.3 | 0.00 | 0.00 | 0.00 | 55 | 1017.4 |
| 20260504170203 | 18 | 322 | 0.0 | 3.2 | 0.00 | 0.00 | 0.00 | 54 | 1017.4 |
| 20260504160204 | 18 | 34 | 1.6 | 9.7 | 0.00 | 0.00 | 0.00 | 52 | 1017.2 |
| 20260504150704 | 19 | 358 | 4.8 | 11.3 | 0.00 | 0.00 | 0.00 | 47 | 1017.5 |
| 20260504150203 | 19 | 65 | 4.8 | 11.3 | 0.00 | 0.00 | 0.00 | 48 | 1017.5 |
| 20260504141203 | 19 | 15 | 4.8 | 11.3 | 0.00 | 0.00 | 0.00 | 48 | 1017.8 |
| 20260504140205 | 18 | 22 | 9.7 | 11.3 | 0.00 | 0.00 | 0.00 | 49 | 1018.0 |
| 20260504130203 | 18 | 16 | 1.6 | 11.3 | 0.00 | 0.00 | 0.00 | 54 | 1018.6 |
| 20260504120203 | 17 | 325 | 0.0 | 1.6 | 0.00 | 0.00 | 0.00 | 58 | 1019.0 |
| 20260504110703 | 17 | 345 | 0.0 | 3.2 | 0.00 | 0.00 | 0.00 | 55 | 1019.0 |
| 20260504110203 | 17 | 336 | 0.0 | 3.2 | 0.00 | 0.00 | 0.00 | 55 | 1019.1 |
| 20260504100204 | 17 | 27 | 0.0 | 1.6 | 0.00 | 0.00 | 0.00 | 55 | 1019.1 |
| 20260504081703 | 16 | 28 | 6.4 | 9.7 | 0.00 | 0.00 | 0.00 | 56 | 1019.0 |
| 20260504081203 | 16 | 21 | 8.0 | 8.0 | 0.00 | 0.00 | 0.00 | 56 | 1019.0 |
| 20260504080703 | 16 | 23 | 3.2 | 11.3 | 0.00 | 0.00 | 0.00 | 56 | 1018.9 |
| 20260504080203 | 16 | 307 | 3.2 | 11.3 | 0.00 | 0.00 | 0.00 | 55 | 1018.8 |
| 20260504070203 | 16 | 17 | 0.0 | 3.2 | 0.00 | 0.00 | 0.00 | 51 | 1018.3 |
| 20260504050704 | 15 | 22 | 0.0 | 9.7 | 0.00 | 0.00 | 0.00 | 54 | 1017.5 |
| 20260504050204 | 15 | 351 | 0.0 | 4.8 | 0.00 | 0.00 | 0.00 | 55 | 1017.4 |
| 20260504045703 | 15 | 324 | 0.0 | 3.2 | 0.00 | 0.00 | 0.00 | 56 | 1017.4 |